This is the latest recevied weather packets stored in our database for station/object DH0DM-13. If no packets are shown the sender has not sent any weather packets the latest 10 day(s).
| Time | Temp. | Humidity | Pressure | Rain* | Wind** | Luminosity | Snow |
|---|---|---|---|---|---|---|---|
| 1787726370 | 13.33° C | 94% | 993 hPa | 3.56 mm | 2.68 m/s, 87° | - | - |
| 1787725769 | 13.33° C | 94% | 992.9 hPa | 3.3 mm | 2.68 m/s, 54° | - | - |
| 1787725168 | 12.78° C | 94% | 992.8 hPa | 3.05 mm | 0.89 m/s, 105° | - | - |
| 1787724567 | 12.78° C | 94% | 992.8 hPa | 2.79 mm | 2.24 m/s, 85° | - | - |
| 1787723966 | 12.78° C | 94% | 992.6 hPa | 2.29 mm | 0 m/s | - | - |
| 1787723365 | 12.78° C | 94% | 992.7 hPa | 2.03 mm | 1.34 m/s, 96° | - | - |
| 1787722764 | 12.78° C | 93% | 992.7 hPa | 1.78 mm | 1.34 m/s, 69° | - | - |
| 1787722163 | 12.78° C | 93% | 992.7 hPa | 1.52 mm | 2.24 m/s, 130° | - | - |
| 1787721562 | 12.78° C | 93% | 992.6 hPa | 1.27 mm | 1.79 m/s, 72° | - | - |
| 1787720962 | 12.78° C | 92% | 992.5 hPa | 1.02 mm | 3.58 m/s, 73° | - | - |
| 1787720361 | 12.78° C | 92% | 992.4 hPa | 0.76 mm | 4.02 m/s, 99° | - | - |
| 1787719760 | 12.78° C | 92% | 992.3 hPa | 0.51 mm | 1.34 m/s, 142° | - | - |
| 1787719159 | 12.78° C | 92% | 992.3 hPa | 0.51 mm | 2.24 m/s, 67° | - | - |
| 1787718558 | 12.78° C | 92% | 992.4 hPa | 0.51 mm | 1.34 m/s, 33° | - | - |
| 1787717957 | 12.78° C | 91% | 992.3 hPa | 0.51 mm | 1.79 m/s, 70° | - | - |
| 1787717356 | 12.78° C | 91% | 992.2 hPa | 0.25 mm | 0.45 m/s, 47° | - | - |
| 1787716755 | 12.78° C | 90% | 992.3 hPa | 0.25 mm | 0 m/s | - | - |
| 1787716154 | 12.78° C | 90% | 992.2 hPa | 0 mm | 2.24 m/s, 81° | - | - |
| 1787715553 | 12.78° C | 89% | 992.4 hPa | 0 mm | 3.13 m/s, 57° | - | - |
| 1787714953 | 13.33° C | 88% | 992.4 hPa | 0 mm | 3.58 m/s, 68° | - | - |
| 1787714351 | 13.33° C | 88% | 992.2 hPa | 0 mm | 2.24 m/s, 80° | - | - |
| 1787713751 | 13.33° C | 87% | 992.3 hPa | 0 mm | 3.58 m/s, 60° | - | - |
| 1787713150 | 13.33° C | 86% | 992.4 hPa | 0 mm | 3.13 m/s, 110° | - | - |
| 1787712549 | 13.33° C | 86% | 992.4 hPa | 0 mm | 0.45 m/s, 99° | - | - |
| 1787711948 | 13.33° C | 86% | 992.3 hPa | 0 mm | 0.89 m/s, 144° | - | - |
* Rain since midnight (hover to see other rain measurements)
** Current wind speed in m/s (hover to see current wind gust speed)